Regional Weather Roundup
Issued by NWS Wakefield, VA

Home | Current Version | Previous Version | Graphics & Text | Print | Product List | Glossary On
Versions: 1 2 3 4 5 6 7 8 9 10 11 12 13 14 15 16 17 18 19 20 21 22 23 24 25 26 27 28 29 30 31 32 33 34 35 36
000
ASUS41 KAKQ 221710
RWRAKQ

REGIONAL WEATHER ROUNDUP
NATIONAL WEATHER SERVICE WAKEFIELD VA
100 PM EDT WED OCT 22 2014

Note: "fair" indicates few or no clouds below 12,000 feet with no
significant weather and/or obstructions to visibility. * = Denotes
station may not report precipitation (e.g., rain,snow,etc.),
thunder or fog.

VAZ042-051-052>054-056-221800-
NORTHERN VIRGINIA

CITY           SKY/WX    TMP DP  RH WIND       PRES   REMARKS
WASH NATIONAL  LGT RAIN  57  50  77 NW16G28   29.94S
DULLES         LGT RAIN  53  49  86 NW15G22   29.96S
FORT BELVOIR   CLOUDY    55  52  88 NW9G21    29.94S
QUANTICO       LGT RAIN  55  50  83 N20G30    29.95R
FREDERICKSBRG* LGT RAIN  57  53  89 NW7G20    29.94S
STAFFORD*      LGT RAIN  55  54  99 NW15G21   29.98S
WARRENTON      CLOUDY    58  52  83 NW16G22   29.96S
CULPEPER*      CLOUDY    57  46  67 N12G20    29.97S
MANASSAS*      NOT AVBL
LEESBURG*      LGT RAIN  54  52  94 N12G17    29.98S
WINCHESTER     CLOUDY    55  41  58 NW13G18   30.01S
FRONT ROYAL*   CLOUDY    54  45  71 N13G20    30.00S
LURAY*         CLOUDY    55  46  71 N14G21    30.01F
$$

VAZ048-049-060>072-079>083-221800-
CENTRAL AND SOUTH CENTRAL VIRGINIA...AND NORTH CENTRAL NORTH CAROLINA

CITY           SKY/WX    TMP DP  RH WIND       PRES   REMARKS
RICHMOND       LGT RAIN  55  51  86 NW15G22   29.92S
CHESTERFIELD*  CLOUDY    54  43  66 NW15      29.94F
PETERSBURG*    LGT RAIN  53  51  90 NW12G21   29.94F
HANOVER        LGT RAIN  54  51  90 NW9G20    29.94F
TAPPAHANNOCK*  RAIN      54  50  86 NW8       29.90S
CHARLOTTSVILLE CLOUDY    60  44  55 N15G25    29.99R
ORANGE*        CLOUDY    59  46  63 NW12G20   29.98S
LOUISA*        CLOUDY    57  46  67 N15G22    29.95S
FARMVILLE*     MOSUNNY   63  45  51 N9G16     29.95F
CREWE*         CLOUDY    59  48  67 NW9G18    29.95F
FORT PICKETT*  CLOUDY    54  51  89 NW6       29.96F
LUNENBURG*     PTSUNNY   59  48  66 NW12G20   29.96F
SOUTH HILL*    PTSUNNY   61  48  63 NW8       30.01F
LAWRENCEVILLE* CLOUDY    53  50  90 NW8       29.95S
ROANOKE RAPIDS LGT RAIN  57  46  67 N21G30    29.94S
RALEIGH        MOSUNNY   63  42  46 N8        29.99F
$$

VAZ088>098-221800-
SOUTHEAST VIRGINIA

CITY           SKY/WX    TMP DP  RH WIND       PRES   REMARKS
NORFOLK        CLOUDY    59  51  75 NW10G22   29.82F
VIRGINIA BEACH LGT RAIN  59  54  83 NW14G22   29.80F FOG
NORFOLK NAVAL  PTSUNNY   61  52  72 NW22G33   29.84F
WEST POINT*    CLOUDY    56  53  88 NW9G17    29.89S
NEWPORT NEWS   CLOUDY    60  52  74 NW14G24   29.85S
LANGLEY AFB    CLOUDY    59  54  83 NW20G26   29.83F
FORT EUSTIS    CLOUDY    57  57 100 NW16G24   29.84F
WILLIAMSBURG*  MOSUNNY   57  54  88 N16G29    29.87F
HR EXEC AP*    CLOUDY    55  50  82 NW8G16    29.87S
FRANKLIN*      CLOUDY    54  54 100 NW12G26   29.89S
WAKEFIELD      CLOUDY    55  50  83 NW8G16    29.89F
$$

VAZ020-022-025-037-045-221800-
WEST CENTRAL AND SOUTHWEST VIRGINIA

CITY           SKY/WX    TMP DP  RH WIND       PRES   REMARKS
STAUNTON*      CLOUDY    59  40  50 N16G24    30.03S
HOT SPRINGS VA CLOUDY    45  38  77 NW15G23   30.03F
LYNCHBURG      CLOUDY    58  41  53 N9G20     30.02F
DANVILLE       SUNNY     65  42  43 N20G28    30.02S
SOUTH BOSTON*  NOT AVBL
MARTINSVILLE   MOSUNNY   62  42  48 NW8G24    30.07F
ROANOKE        PTSUNNY   56  39  53 NW14G29   30.07F
BLACKSBURG     MOSUNNY   52  45  76 NW8G20    30.11S
DUBLIN*        CLOUDY    50  43  76 NW9       30.13S
MARION*        CLOUDY    48  40  75 W12G21    30.17F
HILLSVILLE*    CLOUDY    48  39  73 N13       30.10F
RICHLANDS*     CLOUDY    45  42  91 NW8       30.18S FOG
WISE*          CLOUDY    43  43 100 NW7       30.21F
ABINGDON*      CLOUDY    48  42  79 N8        30.19F
$$

MDZ021>025-VAZ099-100-221800-
SOUTHERN MARYLAND AND THE DELMARVA PENINSULA

CITY           SKY/WX    TMP DP  RH WIND       PRES   REMARKS
PATUXENT RIVER LGT RAIN  55  52  89 NW21      29.85F
BAY BRIDGE APT RAIN      55  54  94 N21G29    29.88F
LEONARDTOWN    CLOUDY    54  50  87 NW7       29.88F
DOVER          CLOUDY    55  55 100 N16G22    29.81F
GEORGETOWN     LGT RAIN  59  53  80 N9G26     29.81F
EASTON         CLOUDY    57  57 100 N12G18    29.88F FOG
CAMBRIDGE      CLOUDY    57  52  82 N14       29.84F VSB<1/4
SALISBURY      CLOUDY    62  53  72 N12G20    29.79F
OCEAN CITY     LGT RAIN  59  55  87 N9G18     29.76F FOG
WALLOPS ISLAND CLOUDY    61  53  75 N15G22    29.78F
ACCOMACK*      CLOUDY    61  52  72 N15G22    29.79S
$$

NCZ012>017-030>032-221800-
EASTERN NORTH CAROLINA

CITY           SKY/WX    TMP DP  RH WIND       PRES   REMARKS
ELIZABETH CITY CLOUDY    59  51  75 NW12G21   29.85S
AHOSKIE*       CLOUDY    57  48  71 N9G16     29.91F
EDENTON*       CLOUDY    56  50  80 NW12      29.88S
CURRITUCK*     CLOUDY    58  50  76 NW10G21   29.83F
KILL DEVIL HLS CLOUDY    58  52  79 W12G23    29.81F
MANTEO         CLOUDY    58  51  78 NW15G22   29.84S
CAPE HATTERAS  CLOUDY    58  49  72 NW17G26   29.86F
TARBORO*       CLOUDY    61  48  63 NW13G25   29.94F
GOLDSBORO      MOSUNNY   65  49  57 NW15G26   29.94S
WASHINGTON     PTSUNNY   59  47  64 NW16      29.92F
GREENVILLE     PTSUNNY   63  46  55 N15G21    29.95S
NEW BERN       PTSUNNY   65  46  50 NW17G28   29.93S
WILMINGTON     SUNNY     65  44  46 NW10G20   29.96F
$$

VAZ048-221800-
ELSEWHERE

CITY           SKY/WX    TMP DP  RH WIND       PRES   REMARKS
HARRISBURG PA  CLOUDY    53  49  86 N10       29.97F
BALTIMORE      LGT RAIN  54  51  90 NW10      29.91S FOG
ANNAPOLIS      LGT RAIN  56  52  86 N16       29.89F
ANDREWS AFB    LGT RAIN  54  52  94 NW18G26   29.91F
WILMINGTON DE  RAIN      55  52  89 N14       29.89F
PHILADELPHIA   HVY RAIN  55  51  86 N16       29.87F FOG
WILDWOOD NJ*   CLOUDY    61  52  72 N15G23    29.80F
ATLANTIC CITY  CLOUDY    60  53  77 N14G30    29.79F
HENDERSON NC   PTSUNNY   62  42  48 NW12G21   29.98F
GREENSBORO     MOSUNNY   62  40  44 NW9G23    30.03F
ROCKY MOUNT    PTSUNNY   61  46  57 N18G30    29.96S
FAYETTEVILLE   SUNNY     67  42  40 N9G20     29.99F
CHARLOTTE      SUNNY     63  36  36 N9G16     30.09F
$$

VAZ100-221800-
MARINE

STATION/POSITION TIME  TEMP    WIND        PRES    WAVE   SWELL
                       AIR SEA DIR/SP/G            HT/PER HT/PER
                 (UTC) (F)     (DEG/KT/KT) (MB)    (FT/S) (FT/S)
44066 TX TWR #4  1700   62 66   20/ 25/ 31 1005.6F
CAPE MAY NJ      1700   60 67  360/  6/ 12 1008.3F
LEWES DE         1700   60 62   30/ 21/ 24 1008.6F
15NM E FENWICK I 1700   63 66   30/ 23/ 27 1006.4F   7/ 6
OCEAN-CITY-INLET 1700   60 65  360/ 16/ 19 1007.2F
WACHAPREAGUE VA  1700   60 63  340/  7/ 12 1008.5S
THOMAS POINT MD  1700   56 64  340/ 19/ 21 1012.3F
GOOSES REEF MD   1700   58     360/ 23/ 29 1011.5F
COVE POINT MD    1700   56     350/ 29/ 32 1010.7F
SOLOMONS ISLAND  1700      65                N/A
BISHOPS HEAD MD  1700   58 60  350/ 14/ 20 1009.5F
PINEY POINT MD   1700          360/ 21/ 23   N/A
POTOMAC MD       1700   58     350/ 14/ 19 1009.9S
CAMBRIDGE MD     1700   57 63  350/ 15/ 18 1010.2F
LEWISETTA VA     1700   56 63  350/ 18/ 25 1010.5F
RAPPAHANNOCK LGT 1700          340/ 25/ 27 1009.4S
STINGRAY PT      1700   58     330/ 21/ 25 1010.3F
YORK RVR RNG VA  1700   59     340/ 21/ 24 1009.4F
YORKTOWN VA      1700   58 67  320/ 22/ 25 1010.1F
JAMESTOWN VA     1700   56     350/ 19/ 25   N/A
DOMINION TERM VA 1700   58     320/  6/ 19 1010.2S
KIPTOPEKE VA     1700      69  340/ 28/ 34   N/A
CHES BAY BRIDGE  1700   58 67  300/ 24/ 29 1008.9F
CHESAPEAKE LGHT  1600   57     310/ 26/ 29 1009.5F
WILLOUBY STN VA  1700   58     320/ 20/ 23 1008.7F
S CRANEY ISL VA  1700          290/ 13/ 22 1009.9S
CAPE HENRY BUOY  1700      68                N/A     5/ 4
1ST LANDING BUOY 1700   59     310/ 25/ 29 1008.9F
CAPE CHARLES BUO 1700      68                N/A     3/ 4   2/ 8
64NM E OF VA BCH 1700   60 69  280/ 21/ 27 1006.2F   6/ 6   2/11
DUCK PIER NC     1700   57 68  300/ 18/ 21 1008.8F
44100 DUCK FRF   1700      71                N/A     5/ 5   2/11
44056 DUCK FRF   1700                        N/A     3/11   2/11
OREGON INLET NC  1700   57 68  290/ 17/ 23 1009.9S
HATTERAS NC      1700   59 69  310/ 22/ 27 1011.6S
DIAMOND SHLS NC  1700   62     290/ 23/ 29 1010.6F   5/ 5   2/11
CAPE LOOKOUT NC  1600   60     300/ 13/ 17 1012.9S
$$



USA.gov is the U.S. government's official web portal to all federal, state and local government web resources and services.